Regional Weather Roundup
Issued by NWS

Home | Current Version | Previous Version | Graphics & Text | Print | Product List | Glossary On
Versions: 1 2 3 4 5 6 7 8 9 10 11 12 13 14 15 16 17 18 19 20 21 22 23 24 25 26 27 28 29 30 31 32 33 34 35 36 37 38 39 40 41 42 43 44 45 46 47 48 49 50
000
ASUS43 KMPX 281410
RWRMN
WEATHER ROUNDUP FOR MINNESOTA
NATIONAL WEATHER SERVICE TWIN CITIES/CHANHASSEN MN
900 AM CDT SAT MAR 28 2015


NOTE: "FAIR" INDICATES FEW OR NO CLOUDS BELOW 12,000 FEET WITH NO
SIGNIFICANT WEATHER AND/OR OBSTRUCTIONS TO VISIBILITY. N/A MEANS
CURRENT SKY AND/OR WEATHER CONDITIONS ARE NOT AVAILABLE.

MNZ060>063-068>070-281500-
   Twin Cities Metro

CITY           SKY/WX    TMP DP  RH WIND       PRES   REMARKS
TWIN CITIES    SUNNY     26  12  55 SE7       30.26R WCI  18
ST PAUL        SUNNY     27  14  58 SE9       30.28R WCI  18
CRYSTAL        SUNNY     28  13  53 SE8       30.24R WCI  20
BLAINE         SUNNY     27  16  63 SE5       30.24R WCI  21
LAKEVILLE      SUNNY     21  10  63 SE5       30.25S WCI  15
EDEN PRAIRIE   SUNNY     26  13  57 SE6       30.24R WCI  19
SOUTH ST PAUL  SUNNY     28  14  57 CALM      30.27R
LAKE ELMO      FAIR      28  16  59 S5        30.27R WCI  23
$$
MNZ001>005-007-008-013>017-022>024-027-028-281500-
   Northwest Minnesota

CITY           SKY/WX    TMP DP  RH WIND       PRES   REMARKS
BEMIDJI        MOSUNNY   24  15  68 S7        30.13S WCI  16
HALLOCK        MOSUNNY   28  21  74 S18       30.06F WCI  16
ROSEAU         MOSUNNY   28  19  69 S12       30.10S WCI  18
WARROAD        MOSUNNY   28  19  69 S7        30.10F WCI  21
THIEF RVR FALL SUNNY     27  21  80 S10       30.10F WCI  17
CROOKSTON      SUNNY     28  21  74 S17       30.11S WCI  16
FOSSTON        SUNNY     27  18  69 S12       30.11F WCI  16
DETROIT LAKES  SUNNY     28  23  80 S10       30.13S WCI  19
MOORHEAD       MOSUNNY   28  25  86 S14       30.13S WCI  17
PARK RAPIDS    SUNNY     26  15  63 S9        30.14R WCI  17
MAHNOMEN       FAIR      28  20  70 S10G17    30.11F WCI  19
$$
MNZ006-009>011-018-025>026-281500-
   North Central Minnesota

CITY           SKY/WX    TMP DP  RH WIND       PRES   REMARKS
BAUDETTE       MOSUNNY   24  14  65 S6        30.11F WCI  17
FLAG ISLAND    MOSUNNY   16  10  79 SE7       30.09F WCI   6
INTL FALLS     SUNNY     22  11  62 S5        30.14F WCI  16
WASKISH        MOSUNNY   27  16  63 CALM      30.14S
BIG FORK       SUNNY     25  16  68 S5        30.16S WCI  19
LONGVILLE      SUNNY     25  16  68 SE7       30.16F WCI  17
GRAND RAPIDS   SUNNY     21  10  63 SE6       30.17S WCI  14
ORR            SUNNY     21  10  63 CALM      30.14S
COOK           SUNNY     25  12  58 S5        30.17S WCI  19
WALKER         FAIR      25  14  62 CALM      30.15S
$$
MNZ012-019>021-037-281500-
   Northeast Minnesota

CITY           SKY/WX    TMP DP  RH WIND       PRES   REMARKS
DULUTH         SUNNY     26  16  65 S5        30.19S WCI  20
ELY            SUNNY     21  10  63 SW6       30.17F WCI  14
HIBBING        SUNNY     20  12  71 VRB3      30.18F
EVELETH        SUNNY     21  14  73 CALM      30.19F
DULUTH HARBOR  SUNNY     23  16  74 CALM      30.26R
TWO HARBORS    SUNNY     28  19  69 CALM      30.20S
SILVER BAY     SUNNY     23  18  80 CALM      30.20S
GRAND MARAIS     N/A     27  16  63 W5        30.24F WCI  22
G MARAIS ARPRT SUNNY     19   9  63 SW3       30.16F
$$
MNZ029>031-032-039>041-046>048-054>057-064-281500-
   West Central Minnesota

CITY           SKY/WX    TMP DP  RH WIND       PRES   REMARKS
FERGUS FALLS   SUNNY     28  19  69 S13       30.17S WCI  18
WHEATON        PTSUNNY   28  27  93 SE10      30.16S WCI  19
MORRIS         MOSUNNY   30  25  80 SE14      30.14F WCI  20
ALEXANDRIA     SUNNY     28  20  71 S9        30.16S WCI  19
ELBOW LAKE     CLOUDY    28  23  82 SE12      30.14F WCI  18
WADENA         SUNNY     27  18  69 SE8       30.15S WCI  18
GLENWOOD       SUNNY     28  21  74 SE10      30.17S WCI  19
APPLETON       CLOUDY    34  27  75 S9        30.16S WCI  26
BENSON         MOSUNNY   30  25  80 S8        30.17S WCI  23
ORTONVILLE     CLOUDY    30  25  80 SE9       30.15S WCI  22
MADISON        CLOUDY    32  27  80 S13       30.16R WCI  22
WILLMAR        FAIR      28  21  74 SE8       30.20S WCI  20
$$
MNZ033>034-036-042>043-049>051-058-059-281500-
   Central Minnesota

CITY           SKY/WX    TMP DP  RH WIND       PRES   REMARKS
ST CLOUD       SUNNY     26  14  60 SE8       30.21S WCI  18
SAUK CENTRE    FAIR      27  20  73 SE7       30.18S WCI  20
PAYNESVILLE    SUNNY     24  16  72 E7        30.20S WCI  15
AITKIN         SUNNY     28  16  59 S7        30.17F WCI  21
PINE RIVER     SUNNY     25  18  74 SE5       30.20S WCI  19
BRAINERD       SUNNY     26  15  63 S5        30.19S WCI  20
STAPLES        SUNNY     25  16  68 S6        30.17R WCI  18
LONG PRAIRIE   FAIR      27  18  69 SE7       30.17F WCI  19
LITTLE FALLS   SUNNY     27  14  59 SE5       30.19S WCI  21
LITCHFIELD     SUNNY     28  19  69 CALM      30.21R
BUFFALO        SUNNY     27  14  59 SE5       30.24S WCI  21
MAPLE LAKE     SUNNY     28  18  66 SE5       30.22F WCI  23
$$
MNZ037-044-045-052-053-281500-
   East Central Minnesota

CITY           SKY/WX    TMP DP  RH WIND       PRES   REMARKS
PRINCETON      SUNNY     27  16  63 SE6       30.22S WCI  20
MORA           SUNNY     27  18  69 S6        30.24S WCI  20
CAMBRIDGE      SUNNY     28  14  54 SE5       30.22S WCI  23
RUSH CITY      SUNNY     26  17  66 S5        30.25R WCI  21
MOOSE LAKE     SUNNY     23  14  68 CALM      30.21S
HINCKLEY       FAIR      27  19  74 S3        30.24S
CLOQUET        SUNNY     25  12  58 CALM      30.20S
MCGREGOR       SUNNY     28  18  64 SE3       30.20S
$$
MNZ071>073-080-081-089-090-097-098-281500-
   Southwest Minnesota

CITY           SKY/WX    TMP DP  RH WIND       PRES   REMARKS
MONTEVIDEO     CLOUDY    30  27  86 S9        30.18S WCI  22
GRANITE FALLS  CLOUDY    31  26  80 SE10      30.20S WCI  22
CANBY          CLOUDY    31  28  89 SE7       30.17R WCI  24
MARSHALL       CLOUDY    28  23  80 S10       30.17S WCI  19
REDWOOD FALLS  CLOUDY    30  25  81 SE10      30.20R WCI  21
OLIVIA         MOSUNNY   28  23  80 SE7       30.19R WCI  21
PIPESTONE      SUNNY     28  27  93 S9        30.13R WCI  20
WINDOM         CLOUDY    30  25  80 SE7       30.18R WCI  23
WORTHINGTON    CLOUDY    28  23  80 SE8       30.17R WCI  20
JACKSON        CLOUDY    32  25  74 SE8       30.18S WCI  25
TRACY          CLOUDY    31  28  89 SE8       30.17R WCI  23
SLAYTON        CLOUDY    28  26  91 CALM      30.16R
$$
MNZ065>067-074>077-082>085-091>093-281500-
   South Central Minnesota

CITY           SKY/WX    TMP DP  RH WIND       PRES   REMARKS
MANKATO        SUNNY     27  18  69 SE9       30.22S WCI  17
NEW ULM        CLOUDY    28  19  69 SE9       30.21S WCI  20
ST JAMES       CLOUDY    30  23  74 SE8       30.22R WCI  23
FAIRMONT       CLOUDY    28  19  69 SE10      30.20R WCI  19
GLENCOE        SUNNY     26  18  73 E3        30.22S
FARIBAULT      SUNNY     25  12  58 SE5       30.24S WCI  19
OWATONNA       SUNNY     27  14  59 SE9       30.23S WCI  17
WASECA         SUNNY     27  18  69 SE8       30.24R WCI  18
ALBERT LEA     MOSUNNY   30  18  59 SE9       30.22S WCI  22
$$
MNZ078>079-086>088-094>096-281500-
   Southeast Minnesota

CITY           SKY/WX    TMP DP  RH WIND       PRES   REMARKS
ROCHESTER      SUNNY     21  10  62 SE10      30.25R WCI  10
RED WING       SUNNY     28  12  50 SE3       30.27S
STANTON        SUNNY     21  14  72 CALM      30.24S
DODGE CENTER   SUNNY     19  10  68 S8        30.23S WCI   9
WINONA         SUNNY     28  21  74 CALM      30.30S
AUSTIN         SUNNY     25  16  68 SE5       30.24R WCI  19
PRESTON        SUNNY     20  10  63 S3        30.26S
$$
ABBREVIATIONS USED IN REMARKS
   TC - TEMPERATURES IN CELSIUS
  WCI - WIND CHILL INDEX
   HX - HEAT INDEX
  VSB - VISIBILITY
$$


USA.gov is the U.S. government's official web portal to all federal, state and local government web resources and services.